User: anonymous   Login
Location: Wayah Bald
(35.1806°N, 83.5603°W)
Time: 11:39:10
(UTC-04:00)
Language:

Meteor 1-27 Rocket - Orbit

View from above orbital plane
View from above orbital plane
View from above satellite
View from above satellite

Ground track
Ground track

The orbit data is extracted from the following two-line orbital elements,

1 09904U 77024B   15186.82607378  .00000057  00000-0  26550-4 0  9998
2 09904 081.2632 098.1602 0054739 172.4208 187.7801 14.06794525962646
Epoch (UTC): 05 July 2015 19:49:32
Eccentricity: 0.0054739
inclination: 81.2632°
perigee height: 830 km
apogee height: 910 km
right ascension of ascending node: 98.1602°
argument of perigee: 172.4208°
revolutions per day: 14.06794525
mean anomaly at epoch: 187.7801°
orbit number at epoch: 96264

The dashed part of the orbit path shows where the satellite is in the earth's shadow,  

DLR